Regional Weather Roundup
Issued by NWS Little Rock, AR

Home | Current Version | Previous Version | Text Only | Print | Product List | Glossary Off
Versions: 1 2 3 4 5 6 7 8 9 10 11 12 13 14 15 16 17 18 19 20 21 22 23 24 25 26 27 28 29 30 31 32

000
ASUS44 KLZK 260705
RWRLZK

WEATHER ROUNDUP FOR ARKANSAS
NATIONAL WEATHER SERVICE LITTLE ROCK AR
200 AM CDT SAT MAY 26 2018

NOTE: "FAIR" INDICATES FEW OR NO CLOUDS BELOW 12,000 FEET WITH NO
SIGNIFICANT WEATHER AND/OR OBSTRUCTIONS TO VISIBILITY.

ARZ001-003-010-029-260800-
NORTHWEST ARKANSAS

CITY           SKY/WX    TMP DP  RH WIND       PRES   REMARKS
FAYETTEVILLE   PTCLDY    65  65 100 CALM      29.88F FOG
FORT SMITH     CLEAR     71  70  96 NE6       29.84F
HARRISON       CLOUDY    66  65  96 CALM      29.89F
BENTONVILLE    PTCLDY    68  65  90 S3        29.90F
ROGERS         PTCLDY    67  65  93 SE5       29.89F
SILOAM SPGS    CLEAR     67  66  97 E3        29.88F
HIGHFILL       PTCLDY    67  64  90 CALM      29.88F
$$

ARZ004-005-016-260800-
NORTH CENTRAL ARKANSAS

CITY           SKY/WX    TMP DP  RH WIND       PRES   REMARKS
BATESVILLE     CLOUDY    67  66  97 VRB3      29.86F FOG
FLIPPIN        CLOUDY    68  67  96 CALM      29.86F
MTN HOME       CLOUDY    66  66 100 CALM      29.86F
$$

ARZ040-041-260800-
WEST CENTRAL ARKANSAS

CITY           SKY/WX    TMP DP  RH WIND       PRES   REMARKS
MENA           CLEAR    N/A N/A N/A CALM      29.88F
MOUNT IDA      CLEAR     65  65 100 CALM      29.84F
$$

ARZ009-017-025-026-028-260800-
NORTHEAST ARKANSAS

CITY           SKY/WX    TMP DP  RH WIND       PRES   REMARKS
CORNING        FAIR      72  72 100 W5        29.85S
JONESBORO      FAIR      72  72 100 S6        29.85F
NEWPORT        FAIR      71  70  96 S6        29.85F
WALNUT RIDGE     N/A     70  69  97 SW3       29.85F
BLYTHEVILLE    FAIR      72  68  87 SW3       29.86F
$$

ARZ022-023-033-042-044-260800-
CENTRAL ARKANSAS

CITY           SKY/WX    TMP DP  RH WIND       PRES   REMARKS
LITTLE ROCK    FAIR      71  69  93 S5        29.85F
N LITTLE ROCK    N/A     70  68  93 S5        29.80F
JACKSONVILLE   MOCLDY    72  71  94 CALM      29.84F
CONWAY         PTSUNNY   72  70  94 CALM      29.84F
SEARCY         LGT RAIN  72  72 100 CALM      29.86F
HOT SPRINGS    CLOUDY    72  70  93 W5        29.86F
RUSSELLVILLE   CLOUDY    71  70  96 CALM      29.85F
CLINTON        CLOUDY    68  68 100 CALM      29.87F
$$

ARZ036-260800-
EAST ARKANSAS

CITY           SKY/WX    TMP DP  RH WIND       PRES   REMARKS
WEST MEMPHIS   FAIR      72  72 100 CALM      29.85S
$$

ARZ050-053-066-070-073-260800-
SOUTHWEST ARKANSAS

CITY           SKY/WX    TMP DP  RH WIND       PRES   REMARKS
ARKADELPHIA    FAIR      70  69  97 CALM      29.85F
CAMDEN         FAIR      70  66  88 CALM      29.84F
TEXARKANA      CLEAR     68  68 100 SE3       29.85F
EL DORADO      FAIR      71  71 100 S5        29.85F
DE QUEEN       CLEAR     66  66 100 CALM      29.83F
$$

ARZ056-057-069-260800-
SOUTHEAST ARKANSAS

CITY           SKY/WX    TMP DP  RH WIND       PRES   REMARKS
PINE BLUFF     FAIR      70  67  90 SW6       29.84F
STUTTGART      FAIR      71  67  87 SW5       29.86F

$$






USA.gov is the U.S. government's official web portal to all federal, state and local government web resources and services.